sat.trackr.live / text

‹ back to catalog

STARLINK-30497

NORAD 58011 · 2023-153W

PAYLOAD ACTIVE UNKNOWN

§ Identity

Operator
Country
US
Launch date
2023-10-05
Launch site
AFETR
Launch vehicle
Mass (kg)
RCS (m²)

Purposes: comms

External: N2YO · Heavens-Above · Gunter

§ Orbital elements

Epoch: 2026-05-24T22:52:46.024608Z

Period
94.27 min
Inclination
43.0068°
Eccentricity
0.0001498
Mean motion
15.27574730 rev/d
Perigee alt
482.0 km
Apogee alt
484.1 km
Semi-major
6,861.2 km
B*
2.5940e-4
RAAN
356.0241°
Arg perigee
278.6252°
Mean anomaly
81.4430°
Rev number
14,656

§ Raw data

STARLINK-304971 58011U 23153W   26144.95331047  .00006881  00000+0  25940-3 0  99932 58011  43.0068 356.0241 0001498 278.6252  81.4430 15.27574730146566

JSON: /api/v1/satellites/58011 · /tle

For live sub-satellite position, see the globe view (requires WebGL).

§ Visibility from observer

Set your observer location to see the next 7 days of passes ≥ 10°. The values pass through the URL so the page stays shareable.

No JS? Fill the form by hand. The geolocation button needs JavaScript.